RH
52 47 54 56 49 47 44 40 36 40 41 28 24 23 27 34 28 28 31 32 28 22 17 16 16 13 11 11 9 8 8 13 15 16 10 10 15 25 39 63 66 66 73 75
55 50 58 57 54 48 44 42 40 39 43 30 26 22 25 28 31 32 31 28 23 18 16 15 15 14 13 12 12 12 11 12 13 14 14 15 19 24 30 27 29 38 63 69
60 54 58 56 56 55 51 46 46 39 40 38 27 22 25 28 31 31 30 27 23 20 19 18 18 17 16 15 14 14 14 14 14 15 15 14 14 14 18 23 18 21 52 55
56 62 62 57 57 58 51 53 47 45 42 40 40 27 32 36 38 38 34 31 28 25 24 22 22 22 23 22 20 18 17 16 16 16 17 15 13 13 14 17 25 38 28 32
62 63 63 62 62 61 57 59 57 52 50 47 48 48 37 38 44 43 40 36 33 31 29 29 30 33 33 31 29 28 27 26 24 22 20 18 16 11 14 15 19 27 40 34
72 71 71 72 74 76 72 69 70 68 66 51 53 54 33 39 39 41 39 39 40 41 43 44 45 43 38 35 30 30 30 29 27 23 19 17 18 14 11 10 11 12 21 36
79 74 72 75 79 82 83 82 79 72 71 63 56 49 43 43 44 46 49 53 53 52 50 46 39 25 15 11 13 12 10 9 12 16 18 15 7 5 14 16 12 13 12 15
72 73 78 80 83 85 83 82 83 77 73 65 62 46 44 46 51 52 51 53 46 30 20 15 13 11 14 14 10 6 5 4 6 7 6 4 4 3 3 8 14 14 15 16
70 74 84 87 88 91 87 85 77 72 70 64 56 51 53 55 57 60 48 38 27 22 20 19 18 14 10 6 4 5 5 4 4 5 4 6 7 6 6 5 11 11 14 16
84 91 89 92 91 92 92 86 73 64 70 73 61 56 64 63 61 51 42 36 29 25 20 13 10 11 9 6 6 6 6 11 25 31 32 36 50 54 41 41 43 48 53 43
95 99 98 97 93 98 93 92 92 91 94 97 84 59 64 57 50 46 36 31 30 25 16 10 8 9 14 19 20 24 35 43 48 78 73 70 84 86 67 54 57 49 95 96
97 93 98 100 100 100 100 100 100 99 97 100 89 56 59 57 46 32 30 27 25 21 15 9 8 9 13 26 79 93 70 60 67 79 100 88 76 88 73 71 74 81 88 99
97 92 100 98 95 96 100 100 100 99 98 96 95 68 62 41 36 28 24 21 15 10 9 10 14 24 43 76 93 99 97 79 88 96 83 96 100 94 98 100 100 98 97 90
82 89 90 96 100 99 97 100 99 98 92 83 62 47 39 34 24 18 14 12 13 14 20 23 28 34 45 55 60 65 65 70 70 75 75 76 84 99 72 100 100 100 100 100
84 90 100 100 100 100 99 92 81 73 65 62 44 42 25 18 15 12 9 10 15 20 22 24 28 33 39 47 60 67 78 95 98 100 100 100 77 83 84 99 98 99 80 80
95 96 99 100 99 97 88 66 59 62 65 50 32 21 20 15 16 13 10 13 15 15 13 12 12 12 16 61 100 100 100 100 99 93 94 92 87 94 90 81 99 70 52 46
100 100 100 96 96 84 70 55 51 44 32 25 19 16 17 16 14 13 12 11 10 10 14 15 15 20 50 70 84 84 100 98 98 100 100 100 89 79 86 77 68 66 56 45
100 100 100 86 78 66 50 46 36 24 16 14 16 14 12 12 12 10 10 10 15 20 22 27 53 71 83 81 82 91 90 90 99 98 86 73 78 79 71 76 69 64 63 53
100 100 100 71 70 69 46 26 20 16 13 13 11 12 12 11 10 8 10 15 20 24 27 32 40 45 48 49 51 54 52 48 50 56 43 58 58 59 67 69 68 60 50 42
100 99 97 93 87 63 26 17 16 14 12 10 10 9 8 8 10 11 27 32 40 48 50 49 48 40 31 32 39 40 41 49 51 49 50 42 47 51 54 51 51 46 48 42
100 99 98 92 37 16 15 14 13 11 10 9 10 12 19 31 38 20 26 28 43 50 53 81 91 90 92 82 55 29 29 35 43 37 32 30 40 42 44 38 29 30 60 47
98 85 42 23 19 17 14 13 12 10 10 10 25 44 36 32 25 22 25 32 50 68 69 72 79 84 85 90 90 70 51 52 49 56 62 52 42 49 34 30 21 25 27 40
40 28 21 19 17 16 14 13 13 13 12 40 36 31 26 20 23 48 44 54 56 63 66 78 81 83 86 100 100 72 70 64 38 44 57 75 89 90 70 66 53 49 35 38
22 22 19 17 15 15 14 17 15 21 43 47 42 37 36 36 59 59 58 60 67 75 79 83 93 94 89 94 97 100 92 86 85 76 84 82 92 95 95 90 69 43 32 52
21 20 20 17 16 14 16 18 26 48 55 72 64 61 62 60 69 59 63 60 68 76 85 97 92 84 92 98 78 100 100 89 82 60 70 96 99 98 99 83 77 71 80 86
23 21 18 16 16 17 19 30 55 61 82 54 58 65 74 61 58 65 67 75 69 77 73 33 40 83 100 95 100 100 100 79 82 60 86 89 96 97 98 100 99 95 85 78
Wind_Speed
34 36 30 32 35 36 32 31 30 28 31 35 30 31 32 36 39 35 37 40 40 40 40 40 38 35 34 32 30 30 33 33 34 35 36 41 43 44 43 43 46 47 47 47
35 34 32 34 35 36 34 33 31 31 32 36 33 31 32 34 38 41 41 40 40 39 40 40 41 39 37 37 39 40 40 40 40 40 41 44 47 50 44 44 49 52 50 50
36 35 33 34 35 36 37 36 35 36 35 36 37 36 37 40 41 41 42 43 42 43 43 45 46 45 45 46 45 46 47 48 48 49 49 51 51 53 55 55 56 56 54 57
37 33 34 36 37 37 40 37 39 38 40 40 41 46 44 44 43 43 45 48 49 49 49 50 49 51 53 53 52 51 53 55 57 58 60 59 61 61 62 64 64 65 62 59
36 36 37 38 38 40 41 39 41 43 45 47 49 50 49 49 45 49 49 51 52 53 56 57 59 61 60 60 59 59 61 62 64 65 67 69 68 71 73 70 73 74 73 69
36 38 40 42 42 43 44 45 44 46 48 54 52 50 53 52 53 51 51 53 55 58 60 63 63 62 62 63 64 67 68 71 71 70 71 73 76 79 80 86 84 84 82 76
36 39 42 43 44 44 44 45 47 50 52 54 54 56 57 56 57 58 59 61 61 61 60 59 59 59 61 66 68 68 69 71 74 76 77 81 84 85 88 91 92 95 92 93
40 40 41 42 42 43 44 46 48 51 54 57 58 60 59 60 62 61 59 58 57 56 57 60 62 66 71 73 75 75 77 80 82 85 88 89 91 91 93 96 98 99 103 97
43 43 42 41 42 44 46 48 49 53 57 60 62 62 63 61 60 56 52 52 54 60 64 67 71 77 81 82 83 86 88 88 89 89 89 89 90 91 93 98 98 102 103 104
44 44 45 46 46 49 50 52 51 52 57 62 65 65 66 61 55 54 53 57 62 65 69 74 79 84 86 87 88 89 88 86 80 75 71 72 71 71 72 73 73 69 69 75
45 45 49 50 50 52 55 58 59 62 63 63 64 64 62 58 57 58 61 63 68 73 77 81 85 88 88 85 84 83 75 67 61 57 58 58 57 55 60 65 65 65 69 65
45 49 52 54 55 58 60 62 63 63 58 54 55 60 60 60 60 64 67 71 76 80 85 88 88 89 88 79 65 61 65 58 59 58 58 60 54 53 56 58 61 60 63 61
45 50 53 58 59 61 63 63 59 55 54 58 61 58 60 64 68 72 74 77 82 86 89 89 88 83 77 70 66 70 71 68 64 64 63 63 59 55 48 53 51 48 46 46
45 50 53 56 61 58 53 52 52 53 58 60 63 62 64 70 74 76 79 84 86 89 86 84 80 76 69 64 61 60 57 54 53 57 58 56 56 53 58 53 40 37 40 33
47 49 55 54 53 49 48 48 49 57 60 65 60 73 73 77 81 83 84 88 88 83 79 76 73 67 62 59 57 54 50 48 49 50 48 47 49 41 39 43 36 33 29 33
49 53 53 51 51 53 49 50 53 59 65 70 72 74 77 79 83 85 86 84 79 77 75 70 65 62 60 60 54 52 50 49 49 49 47 46 46 43 40 42 39 34 29 29
51 52 48 51 51 51 51 51 57 64 66 69 74 75 77 79 80 81 82 77 73 71 64 58 55 50 49 48 47 43 44 46 51 54 51 49 49 50 49 51 51 47 41 38
53 52 50 49 51 49 52 57 63 65 67 69 72 74 75 76 77 77 73 71 69 65 61 57 53 50 47 48 49 49 47 46 46 44 46 45 48 49 50 44 44 46 48 43
56 52 44 49 51 52 53 61 63 67 66 66 70 69 69 71 73 71 66 66 64 61 59 55 54 56 57 56 56 55 54 55 54 52 47 44 45 44 45 46 45 45 43 40
50 45 45 50 54 56 56 62 65 67 66 64 65 66 66 66 64 46 25 30 31 32 34 35 36 39 44 50 52 54 52 51 50 49 50 46 42 43 44 43 42 44 46 44
43 46 48 51 57 59 58 60 62 62 64 62 57 57 52 34 39 35 38 38 41 42 41 41 41 42 40 36 33 32 34 37 43 51 53 53 49 45 44 42 40 40 39 38
46 47 50 55 58 59 59 61 57 59 51 51 37 32 35 39 41 45 46 44 42 38 40 42 43 44 44 43 41 39 35 32 32 28 25 29 35 38 43 45 45 42 41 39
48 50 53 55 56 56 56 49 45 42 42 27 32 39 43 46 47 45 37 35 36 37 36 36 38 38 38 40 41 41 38 35 33 32 31 32 35 38 38 40 38 34 39 36
52 53 54 54 53 50 45 39 41 33 25 31 35 39 42 45 39 32 34 34 33 38 42 45 49 48 43 39 37 37 38 35 35 34 34 36 39 43 40 34 32 34 32 35
54 53 53 56 50 42 34 41 28 24 28 31 34 36 34 31 29 34 35 36 40 43 47 51 51 49 43 37 32 31 31 24 23 25 24 25 23 22 24 27 23 23 28 32
55 55 54 51 42 32 36 29 22 25 28 32 33 30 28 30 32 34 34 36 39 42 47 42 38 29 21 21 24 24 22 17 14 15 20 15 11 8 9 11 15 19 23 25
Wind_Direction
252 254 260 256 256 261 262 263 265 267 266 269 273 276 274 273 280 273 267 266 270 270 272 274 275 274 273 270 266 256 256 257 271 273 276 283 282 275 273 270 272 274 274 276
255 254 256 257 261 264 265 268 272 271 268 270 273 274 275 274 271 272 272 271 269 267 269 268 269 270 269 270 270 268 267 272 276 276 275 280 283 289 285 278 277 276 276 276
258 259 257 260 262 266 269 271 271 270 270 274 273 271 274 275 274 273 272 271 268 267 267 268 269 270 271 272 272 272 273 276 281 281 282 281 282 282 285 283 280 274 273 274
260 263 262 260 262 267 270 274 275 278 278 280 277 274 273 274 274 270 268 268 268 268 269 269 267 269 272 274 274 273 274 276 278 279 281 280 277 278 279 283 284 283 273 268
262 262 264 264 265 266 271 273 275 276 275 274 275 278 278 275 270 268 267 267 268 268 268 269 271 274 273 271 271 271 272 271 271 271 273 274 274 274 276 274 277 280 278 270
261 265 264 265 266 269 273 275 275 274 274 274 278 277 274 276 274 273 272 272 273 273 275 275 276 276 277 276 276 275 275 275 275 274 273 273 272 270 270 275 274 274 275 267
264 264 264 265 267 270 272 272 272 272 273 275 274 273 273 274 277 277 278 279 279 279 280 280 279 277 276 280 285 282 279 275 273 273 272 271 272 269 267 265 267 271 270 270
270 267 265 266 266 266 267 269 269 271 270 270 270 272 274 274 274 275 278 282 283 286 285 285 284 284 289 288 287 287 287 286 285 281 280 279 277 271 266 264 263 261 265 267
272 270 269 269 269 269 268 266 265 264 267 268 269 271 272 273 274 277 280 283 283 284 286 288 289 290 292 292 291 292 290 286 283 282 279 276 274 271 266 263 265 264 263 265
272 269 269 269 270 270 269 267 263 260 261 263 269 273 272 272 277 280 283 284 287 289 292 293 291 287 287 289 289 287 285 284 286 286 283 279 278 277 273 273 269 267 265 268
275 273 271 269 271 269 266 265 260 260 263 265 270 269 272 277 280 284 286 287 289 292 291 290 289 287 286 287 287 287 288 289 285 279 281 279 277 275 276 272 264 260 261 261
272 274 274 271 272 271 266 263 262 262 266 270 271 270 280 284 286 287 288 288 289 288 290 288 285 284 284 288 287 282 287 284 279 277 279 281 287 285 282 280 275 271 270 267
273 272 273 273 274 274 269 265 266 265 269 273 274 284 285 285 285 284 289 290 289 288 287 286 286 287 287 287 282 280 281 281 274 273 275 277 277 276 277 268 267 265 265 265
271 273 275 276 273 273 270 267 270 276 275 276 279 284 285 285 286 289 288 288 288 287 288 288 288 288 287 286 283 283 284 281 277 275 275 277 280 284 277 280 277 268 270 266
272 278 276 270 265 262 267 274 274 274 276 278 287 284 286 287 287 286 288 287 288 289 290 291 290 290 289 286 283 282 281 277 272 270 274 276 279 286 286 279 283 281 281 281
269 264 263 260 258 269 274 276 278 275 276 280 284 286 287 287 287 288 289 290 292 293 293 292 289 287 280 271 268 271 271 273 274 274 276 277 280 283 285 288 287 282 270 271
258 256 256 263 265 267 273 277 276 277 280 283 283 287 288 289 290 291 291 292 295 295 293 293 292 288 284 283 280 275 275 273 270 269 271 273 275 279 280 283 285 284 283 280
250 247 256 264 267 271 280 281 279 280 282 284 286 287 289 291 293 295 298 300 296 293 293 292 288 284 279 279 280 281 280 279 278 278 276 273 271 272 273 275 277 279 281 278
245 253 264 266 270 278 283 280 283 284 284 288 290 293 292 292 293 296 298 293 291 289 287 287 287 285 283 281 279 278 279 280 280 282 279 274 272 270 269 270 273 276 275 278
254 261 267 274 277 278 282 282 285 287 290 291 290 290 293 294 295 300 301 309 314 312 306 303 303 303 293 280 277 277 277 277 279 280 277 274 273 274 270 267 267 269 272 274
266 273 277 279 277 280 282 284 285 290 292 294 297 294 295 295 296 302 302 303 304 303 299 297 297 298 298 298 299 301 290 283 279 273 273 274 273 273 273 269 267 266 263 262
277 279 277 278 283 286 288 287 292 293 294 296 288 285 288 292 294 297 302 302 302 301 298 296 293 292 288 285 287 290 290 287 288 293 294 281 273 270 270 270 267 262 260 256
273 276 280 281 284 288 289 295 291 296 298 285 285 287 292 298 303 306 307 306 308 307 307 306 306 301 294 290 283 281 281 282 285 288 289 283 278 278 274 270 268 261 253 252
274 275 277 281 285 288 296 291 293 291 284 295 297 300 301 301 302 305 306 307 308 308 307 302 301 298 296 291 283 286 280 280 284 287 284 286 285 277 273 273 261 258 249 247
275 277 279 280 285 288 283 287 284 281 295 307 307 304 302 300 306 308 308 304 307 310 312 309 305 298 290 284 282 278 284 280 287 295 296 301 293 282 257 264 254 247 247 248
274 275 278 279 278 279 279 269 275 293 304 304 308 307 303 300 305 308 311 315 317 320 319 319 321 314 301 288 283 277 276 277 278 299 316 302 317 299 266 255 252 251 249 246